{"data":{"norad_id":48958,"intl_designator":"2021-059CH","name":"SHERPA-FX2 & TAGSAT-2","alt_names":[],"object_type":"PAYLOAD","status":"ACTIVE","operator":null,"country":"US","launch_date":"2021-06-30","launch_site_code":"AFETR","launch_vehicle":null,"mission":null,"orbit_class":"UNKNOWN","rcs_meters":null,"size_class":null,"mass_kg":null,"dimensions":null,"purposes":[],"wikipedia_slug":null,"has_3d_model":false,"image_url":null,"decayed_at":null,"tle_current":{"epoch":"2026-05-25T02:10:00.213600Z","epoch_age_seconds":63255,"freshness":"FRESH","line1":"1 48958U 21059CH  26145.09028025  .00018722  00000+0  27831-3 0  9998","line2":"2 48958  97.6878 337.3593 0007588  68.4869 291.7193 15.55194142273835","mean_motion":15.55194142,"eccentricity":0.0007588,"inclination_deg":97.6878,"raan_deg":337.3593,"arg_perigee_deg":68.4869,"mean_anomaly_deg":291.7193,"bstar":0.00027831,"rev_number":27383,"period_min":92.592941364101,"perigee_km":396.44388565674,"apogee_km":406.73279683461,"semimajor_km":6779.7253412457,"source":"CELESTRAK","updated_at":"2026-05-25T13:37:56.978888Z"}}}